Location: Bas-Clignon
(44.2000°N, 6.6333°E)
Time: 08:04:30
(UTC+00:00)

Cosmos 1741 Rocket - Pass Details

Date: 03 February 2023
Orbit: 761 x 781 km, 74.0° (Epoch: 26 March)

Event Time Altitude Azimuth Distance (km) Brightness Sun altitude
Rises 18:29:17 0° 191° (SSW) 3,244 7.5 -18.8°
Reaches altitude 10° 18:31:39 10° 189° (S) 2,323 6.6 -19.2°
Maximum altitude 18:36:54 69° 107° (ESE) 838 3.9 -20.2°
Enters shadow 18:40:18 22° 29° (NNE) 1,645 5.4 -20.8°
